Location: Le Vaud
(46.4779°N, 6.2346°E)
Time: 13:55:18
(UTC+00:00)

Cosmos 2237 Rocket - Pass Details

Date: 18 February 2020
Orbit: 835 x 849 km, 71.0° (Epoch: 07 April)

Event Time Altitude Azimuth Distance (km) Brightness Sun altitude
Exits shadow 03:49:06 32° 351° (N) 1,408 3.3 -29.1°
Drops below altitude 10° 03:52:28 10° 16° (NNE) 2,457 4.9 -28.5°
Sets 03:55:02 0° 23° (NNE) 3,395 5.8 -28.1°
